Wind_Speed
63 67 71 74 77 80 80 80 79 77 75 74 75 75 73 73 74 70 65 57 45 39 51 64 63 63 66 57 52 56 57 55 54 50 45 44 47 47 46 46 45 45 45 44 46 45 42 39 38 35 31 30 33 34 32 31 30 31 32 33 35 36 36 35 33 30 28 27 26 26 26 27 28 28 28 27 25 24 22 22 23 25 26 25 26 27
61 66 70 72 73 73 76 78 78 77 75 75 77 76 73 72 72 70 61 52 52 48 44 53 60 64 67 62 54 54 57 57 53 50 48 44 47 48 46 47 46 45 47 47 47 46 41 39 37 33 31 31 33 34 32 31 31 31 32 34 35 35 34 33 30 27 24 24 24 25 26 27 27 27 26 25 24 24 24 24 24 26 27 27 28 27
58 65 69 68 68 69 73 77 78 77 75 77 76 72 73 74 69 67 59 49 55 57 46 45 54 60 63 63 59 54 56 59 52 48 49 47 45 47 48 49 48 47 47 49 47 44 41 39 35 32 32 33 33 33 32 31 31 31 33 34 34 33 32 30 26 23 22 23 24 25 26 27 27 27 26 27 27 27 26 26 26 26 26 26 27 27
55 61 66 66 65 67 71 74 76 75 74 76 75 71 70 68 63 63 64 56 49 51 49 48 56 61 60 58 58 56 56 61 56 49 50 53 49 49 51 50 49 48 48 49 46 43 41 38 34 32 32 33 32 31 32 31 31 32 32 33 33 31 30 27 24 23 23 23 25 26 27 28 28 28 28 29 30 28 27 26 25 25 25 25 27 28
54 56 61 64 65 67 69 72 73 74 75 75 73 73 73 67 58 58 64 57 46 51 55 51 53 62 63 57 54 56 56 60 62 51 46 51 52 51 52 50 48 48 48 48 45 43 41 37 33 32 32 31 31 31 31 31 31 31 32 33 32 28 25 24 23 24 24 24 27 28 28 28 30 30 29 28 28 27 26 26 24 24 25 26 26 25
53 51 57 62 64 66 67 70 71 73 75 74 72 75 76 68 55 49 49 48 53 62 62 54 54 60 61 54 50 54 55 61 64 49 41 47 52 50 49 48 46 45 46 46 44 42 39 36 33 32 31 30 30 30 30 31 31 30 31 31 27 22 22 24 24 25 26 27 28 29 30 30 30 30 28 26 27 27 26 24 24 25 25 23 20 19
51 49 54 59 63 65 67 68 70 73 73 71 74 76 74 65 50 41 41 48 62 69 64 61 60 58 54 48 50 54 53 60 61 46 40 45 47 46 45 43 42 42 43 43 41 39 36 34 32 30 29 30 30 29 30 30 30 29 29 29 25 21 23 25 26 27 28 29 29 30 31 31 31 29 28 28 28 28 25 24 24 24 22 19 17 18
51 52 51 53 59 63 66 68 69 72 69 68 74 73 69 61 44 35 40 49 61 64 59 61 62 57 49 48 52 51 50 57 55 44 43 44 42 41 40 39 37 37 38 39 37 35 33 32 30 29 29 30 29 29 30 29 29 28 27 28 25 22 24 25 26 28 29 30 30 30 31 30 30 29 28 29 29 28 26 25 24 21 19 18 18 16
50 53 48 50 58 61 65 67 67 68 66 66 71 71 70 65 51 42 44 48 54 53 47 52 63 60 52 52 51 45 50 57 50 44 45 43 42 41 38 35 33 34 35 35 34 31 30 29 29 29 29 29 28 28 30 29 28 27 26 27 25 23 24 24 26 28 29 29 29 29 28 27 28 27 27 28 27 27 26 25 24 21 20 19 16 15
50 53 48 51 58 59 62 65 64 64 65 61 53 55 68 70 62 55 48 46 47 43 37 43 60 60 53 55 51 43 49 54 48 46 46 45 44 41 36 33 32 33 34 32 31 29 28 28 29 28 28 28 28 29 30 29 29 28 26 26 25 24 25 25 26 27 27 27 28 28 26 25 27 26 25 25 25 25 25 25 24 21 19 17 15 14
47 48 48 52 56 55 53 58 64 64 68 61 37 37 60 68 66 60 53 48 43 42 48 55 58 54 52 55 53 49 50 51 50 48 46 46 45 40 36 34 33 33 32 30 29 28 27 29 28 27 27 28 28 29 30 28 29 29 27 26 26 25 25 25 25 24 25 26 27 26 25 25 26 25 23 24 24 24 22 21 20 19 17 15 14 14
42 44 46 46 52 57 51 53 61 63 69 62 40 40 58 65 66 61 55 47 36 42 61 64 51 45 54 56 52 50 48 50 52 47 45 46 42 39 37 35 34 32 31 30 29 28 28 29 28 27 27 27 28 29 29 29 29 29 28 27 27 26 25 24 24 23 24 26 25 25 25 24 24 23 22 21 21 20 18 17 16 15 14 13 13 14
43 43 45 42 49 59 54 51 57 63 68 56 40 46 53 56 62 59 54 51 46 54 63 54 44 46 52 48 47 48 44 48 53 43 41 45 39 37 37 35 34 32 32 33 30 30 30 29 28 27 27 27 28 29 30 29 29 29 28 28 28 26 24 24 24 24 25 25 24 25 24 23 22 21 20 19 18 17 16 15 14 13 13 13 13 13
42 38 41 43 47 55 52 45 51 62 66 54 42 44 43 45 59 61 58 59 60 64 56 40 41 51 51 41 44 47 38 41 51 43 40 43 39 36 36 36 35 33 34 34 31 31 30 28 27 27 28 29 29 29 29 30 30 29 28 28 28 26 25 26 26 24 25 24 23 24 23 21 20 19 18 18 18 17 16 15 14 14 14 13 13 14
37 32 37 41 44 53 51 41 45 57 64 60 50 44 36 37 53 65 65 62 63 62 50 40 43 49 50 45 45 46 38 37 47 45 41 42 39 37 37 37 37 36 36 35 33 32 29 28 28 29 31 31 29 28 28 29 29 28 28 29 29 29 28 28 26 24 24 23 22 22 21 20 19 19 19 19 18 17 16 16 15 15 14 14 15 15
32 27 31 39 43 52 53 40 37 49 59 59 47 37 34 32 40 58 62 54 55 53 43 43 48 47 45 45 46 44 42 44 48 43 39 40 40 39 38 40 41 40 38 38 36 32 28 28 29 31 32 30 27 27 27 28 28 28 28 29 30 31 29 28 25 23 23 22 21 20 20 20 19 20 20 20 19 18 17 17 17 15 14 15 16 17
29 24 27 37 42 49 55 44 35 47 57 53 43 34 33 29 27 42 52 50 51 48 42 46 53 50 46 46 47 42 39 45 50 42 34 36 40 40 41 42 43 42 40 40 37 31 28 29 30 31 31 29 27 26 27 28 28 27 28 29 31 30 29 28 26 24 23 22 21 19 19 20 21 22 22 21 20 19 18 18 17 15 15 16 17 18
25 21 23 34 40 46 56 47 33 44 50 43 46 41 29 27 25 28 37 44 48 45 43 50 53 51 48 47 48 45 42 44 46 39 33 34 40 42 42 41 41 41 41 40 36 31 29 30 31 31 30 28 26 26 27 27 27 27 27 29 31 30 29 29 27 24 24 23 22 20 20 21 23 24 22 21 19 19 18 17 16 16 16 17 17 18
25 20 20 32 41 44 55 49 29 38 43 32 46 51 32 27 29 24 25 35 45 44 41 48 53 52 49 46 47 48 47 45 42 37 33 35 41 42 41 41 40 41 42 42 37 32 31 31 30 29 27 26 26 26 27 27 26 26 26 29 30 30 29 28 27 25 24 24 23 22 22 22 24 23 21 20 19 18 18 17 17 17 17 17 18 18
24 21 20 29 39 39 50 51 32 37 44 29 36 47 33 25 25 23 24 31 44 48 43 41 46 49 48 46 47 48 45 44 42 40 35 35 40 41 40 41 40 41 43 42 37 33 32 32 30 28 27 27 26 27 27 26 26 26 26 28 30 29 29 28 27 26 25 24 24 24 24 23 23 23 21 20 19 18 18 18 17 18 18 18 18 18
24 22 19 25 36 36 43 51 37 38 48 35 28 34 32 29 25 24 24 25 33 44 46 42 41 45 47 45 46 46 44 41 41 42 38 35 38 40 40 41 40 40 42 40 37 35 35 34 31 29 28 27 27 28 28 26 26 26 26 27 29 29 28 27 26 26 25 24 24 25 24 23 23 22 21 19 18 19 19 19 19 18 18 18 18 18
23 22 20 22 36 39 40 48 41 38 47 40 29 31 37 36 32 31 28 22 25 34 42 47 45 40 38 40 44 45 45 41 39 40 37 34 38 39 38 40 41 42 41 38 38 38 37 36 33 30 28 27 27 28 28 26 26 27 27 27 28 28 27 26 26 25 24 24 24 24 24 23 22 22 21 19 18 19 20 20 20 19 19 19 19 19
22 20 17 17 31 41 40 44 45 42 46 40 28 27 34 36 35 36 31 25 25 25 28 38 42 36 33 39 44 46 48 43 37 36 34 33 36 37 37 40 43 42 40 39 40 40 39 37 34 31 28 27 28 28 28 27 26 28 29 27 28 28 26 25 25 25 24 24 24 24 24 23 22 21 20 19 19 19 21 21 20 20 20 20 20 20
24 19 14 14 25 37 37 40 42 37 37 39 32 26 26 30 34 31 25 23 22 20 21 24 29 33 38 42 44 45 47 43 38 34 32 34 37 38 40 42 43 42 41 41 42 41 39 37 34 31 28 28 29 29 28 27 27 29 29 27 27 28 26 25 25 24 24 25 25 24 24 23 21 20 20 19 19 20 21 22 21 21 20 20 20 20
27 20 14 17 25 29 28 32 37 34 32 39 42 35 24 22 28 26 22 22 22 23 27 22 19 28 38 42 43 44 41 38 37 35 32 34 37 38 41 43 42 42 41 41 42 41 39 37 33 31 29 29 30 30 29 28 28 29 27 25 27 28 27 25 25 25 25 26 25 25 25 24 22 21 20 20 20 21 22 22 22 21 21 20 20 20
28 23 16 18 25 29 29 33 41 44 43 44 46 42 30 23 27 29 25 24 23 28 35 29 20 25 35 38 37 38 37 34 34 34 33 33 35 38 41 43 43 42 40 40 41 40 39 36 33 31 30 31 31 31 29 28 28 27 25 25 27 28 27 25 24 25 26 27 26 25 25 24 23 22 21 21 21 21 23 23 23 22 21 21 21 20
27 24 18 18 21 27 32 36 41 45 45 42 41 41 36 28 27 26 26 26 22 22 33 33 24 22 29 34 31 29 30 30 29 31 33 33 35 38 41 43 43 41 39 40 40 40 38 35 33 32 31 32 33 31 28 27 27 26 24 25 27 28 27 24 24 25 26 27 25 24 24 23 23 23 22 21 21 22 23 24 23 23 22 21 21 21
25 21 17 17 20 23 28 29 33 40 43 40 38 39 39 36 31 28 31 33 25 21 27 31 29 22 20 26 31 28 25 26 27 30 33 34 35 38 41 42 41 39 39 39 39 39 36 34 33 32 32 34 33 29 27 27 26 24 24 25 26 25 24 23 23 24 25 26 24 23 24 23 23 23 22 21 21 22 23 23 23 23 22 22 21 21
24 20 14 15 18 21 23 21 23 33 40 39 36 36 38 41 41 40 39 34 30 28 24 24 32 37 30 23 23 25 25 25 28 30 32 34 36 38 39 39 39 38 38 38 38 37 35 34 33 32 34 34 30 26 26 26 25 23 23 24 24 24 23 22 22 23 23 24 23 23 24 24 23 23 22 21 21 22 23 23 23 22 22 22 22 22
24 20 13 13 17 19 22 21 19 25 33 37 38 38 40 43 46 48 48 42 39 36 28 24 31 41 44 36 25 21 23 24 26 29 31 34 36 37 38 37 37 38 38 38 37 36 35 35 34 35 36 33 27 26 27 25 23 23 23 23 23 23 23 22 21 22 22 22 23 24 24 24 24 23 22 22 21 22 23 23 22 22 22 22 23 24
22 20 14 12 15 18 22 23 22 23 28 33 36 37 41 45 47 49 51 51 49 45 41 41 38 34 39 41 34 30 27 24 24 28 30 32 35 36 37 37 37 37 37 37 36 35 36 36 37 38 35 30 27 28 26 25 24 24 23 23 23 24 24 23 22 21 21 21 23 24 24 24 24 24 23 22 22 22 22 22 23 23 23 23 24 25
20 18 15 13 13 14 17 20 22 25 28 31 34 36 39 42 45 46 47 48 49 47 44 46 46 39 32 33 37 39 33 25 24 26 29 31 34 36 37 37 37 38 38 37 36 37 38 38 39 37 32 29 29 28 26 25 25 24 24 24 24 24 24 23 22 22 21 21 23 24 24 25 25 24 24 23 23 22 22 22 23 24 24 24 25 26
19 17 14 14 14 13 14 16 19 24 29 32 35 38 39 42 45 46 47 48 47 47 45 44 46 43 31 28 35 38 32 27 26 27 29 31 33 36 37 37 37 38 37 37 37 39 39 39 39 35 30 30 32 30 27 27 26 25 26 26 25 26 26 25 24 24 22 22 23 24 25 25 25 25 25 24 24 23 23 22 23 24 24 25 26 26
19 17 14 14 15 13 13 15 17 20 26 30 32 33 36 40 43 44 47 48 46 45 44 43 43 37 28 29 35 33 28 29 30 31 32 33 35 36 37 37 37 36 36 37 38 40 40 40 38 34 31 33 34 32 30 29 27 27 27 27 27 26 26 26 26 25 24 23 23 23 25 25 25 25 25 25 25 25 24 23 24 25 25 26 27 27
18 17 15 14 15 14 14 15 16 18 22 25 28 31 33 36 38 40 41 42 41 39 39 38 35 29 27 32 35 32 30 32 34 33 34 35 35 36 36 37 37 36 36 38 40 41 41 40 37 33 32 34 34 34 33 32 30 29 29 28 27 26 26 26 25 24 24 24 23 23 24 25 25 26 27 27 26 26 25 25 25 25 26 27 28 29
18 18 16 14 15 15 12 11 14 16 19 22 25 28 30 32 34 36 36 37 37 37 37 37 31 26 28 32 35 36 37 37 35 33 33 33 33 33 35 37 37 37 38 40 41 41 40 38 35 33 33 34 35 35 35 34 32 31 30 29 28 27 26 26 25 24 24 24 24 25 26 26 27 27 28 28 27 27 26 26 26 27 27 28 29 29
16 17 15 15 17 16 11 10 13 15 18 21 23 25 28 30 32 33 33 33 34 34 35 33 27 26 28 32 36 41 42 37 34 32 32 33 33 34 36 38 38 39 39 40 41 40 39 36 34 33 34 35 35 35 35 34 34 33 32 31 29 27 26 26 25 25 25 26 26 27 27 28 28 29 29 29 28 27 27 27 27 27 28 28 29 30
16 18 17 18 19 17 13 12 13 14 16 20 22 24 26 27 28 30 29 30 31 31 31 28 25 26 29 32 37 42 41 36 34 33 33 34 34 35 37 38 40 40 40 39 38 36 35 34 33 33 34 34 34 34 34 35 34 34 33 31 29 28 27 27 27 27 27 27 27 27 28 29 29 29 29 29 28 28 27 27 27 27 28 28 29 30
17 20 20 19 19 17 15 15 15 14 17 20 21 22 22 22 24 26 26 27 29 28 27 26 25 26 29 32 36 40 39 36 35 35 36 35 34 35 38 39 40 40 39 38 36 34 33 33 33 33 33 33 33 33 33 32 32 32 31 30 30 29 29 28 28 28 28 28 27 27 28 28 28 28 28 28 28 27 27 27 27 27 28 29 29 31
19 21 20 18 17 16 15 15 16 16 18 20 20 20 21 21 22 23 24 25 28 27 26 26 25 26 28 31 36 40 39 38 39 39 37 35 35 36 38 40 40 39 39 38 35 34 33 33 33 33 33 33 33 32 30 28 27 26 27 28 29 29 28 28 28 28 28 27 26 26 26 26 26 26 26 27 26 26 26 26 26 27 28 30 31 31
20 21 19 17 18 18 16 15 15 16 18 20 21 21 20 20 20 21 23 25 25 25 25 26 26 27 29 31 35 39 40 41 42 37 33 34 37 37 38 40 39 37 36 35 34 33 33 33 33 33 32 32 31 29 27 24 23 22 22 23 24 24 25 26 26 26 25 25 24 24 24 24 25 25 26 26 26 26 26 27 27 29 30 31 32 32
19 18 18 17 17 18 18 15 13 14 18 20 22 23 22 21 21 21 22 23 22 21 22 23 24 25 27 29 33 37 40 41 40 35 31 33 36 37 38 39 38 35 33 32 31 32 32 33 33 32 31 30 29 26 24 22 21 21 20 20 20 21 22 23 23 23 23 23 24 24 25 25 26 26 27 27 27 28 28 29 30 31 32 33 33 33
16 15 16 18 17 16 17 14 12 16 20 20 21 23 24 23 22 21 19 19 20 20 21 23 24 25 26 29 32 35 37 39 39 36 36 36 36 37 38 37 36 35 32 32 33 34 35 34 33 31 31 30 27 24 22 21 20 20 20 20 20 21 21 21 22 23 24 25 26 26 27 27 28 28 29 29 30 31 31 32 33 33 34 34 34 34
14 12 15 18 16 16 19 16 12 15 20 20 20 22 23 22 21 19 18 18 19 20 22 23 24 25 27 29 30 31 34 38 39 39 39 39 38 38 38 38 37 35 33 33 35 35 35 35 33 32 31 29 26 23 22 22 21 21 21 21 21 21 21 22 24 25 26 27 28 29 29 30 31 32 33 33 34 35 35 35 35 36 36 36 35 36
13 13 15 16 15 17 20 18 13 13 16 20 21 20 19 19 18 18 18 18 17 19 21 22 23 25 27 28 28 30 33 36 38 38 38 38 37 36 37 37 36 34 33 34 34 34 34 34 33 30 29 27 24 24 24 23 22 22 22 22 22 22 23 25 27 28 29 31 31 32 33 34 35 36 36 37 38 38 37 38 38 38 37 37 37 36
13 14 13 12 12 16 18 17 15 13 14 17 19 18 17 18 18 18 18 17 17 18 20 22 23 24 26 27 27 29 33 36 37 37 37 36 35 36 37 36 36 36 35 34 33 33 33 33 31 29 28 26 25 25 25 25 24 24 24 24 24 25 26 27 29 30 32 33 33 34 35 36 36 37 37 38 38 38 38 38 38 38 37 36 36 36
13 13 13 11 10 13 16 16 16 15 14 15 16 17 17 18 18 19 18 16 17 18 19 22 24 25 26 27 27 28 32 35 37 38 37 36 36 36 36 35 35 36 36 35 34 34 34 33 32 30 28 27 27 27 27 27 26 26 25 25 26 27 28 29 30 31 32 33 34 34 35 35 36 36 36 37 37 37 37 37 37 36 35 34 34 33
14 11 12 12 10 10 12 14 15 15 16 16 16 16 17 17 16 17 18 17 17 18 19 22 25 27 28 28 28 29 30 33 36 38 38 38 37 36 36 35 34 34 35 35 35 35 35 35 33 30 28 27 28 29 29 28 28 28 27 27 29 29 30 31 32 33 34 34 35 35 35 36 36 36 35 35 35 35 35 35 35 33 33 32 32 32
16 13 12 13 10 8 11 13 14 15 17 17 16 16 17 17 16 16 17 18 18 19 20 22 24 28 30 31 30 30 31 32 35 37 38 38 36 34 34 35 34 34 35 35 34 35 36 35 33 30 29 29 29 29 29 29 30 29 28 29 30 31 31 32 34 34 35 35 35 36 36 36 36 35 35 34 34 33 33 34 34 33 32 32 32 32
20 17 15 14 11 9 10 13 14 15 16 16 17 18 17 18 18 18 18 18 17 17 19 21 23 26 29 32 32 33 32 32 33 35 36 36 34 32 32 32 32 32 33 34 34 34 34 33 32 30 29 30 30 29 29 30 30 30 30 31 32 32 32 33 35 35 35 35 35 35 35 35 35 34 34 33 33 33 33 33 34 33 32 32 32 32
22 20 17 16 13 10 10 12 13 13 13 13 16 18 19 18 18 19 19 19 18 17 18 20 22 24 27 30 32 33 34 33 33 33 33 34 33 32 31 31 30 29 28 29 29 29 30 30 29 29 30 31 31 31 31 31 32 31 31 32 33 33 34 35 36 35 34 34 34 33 33 34 34 33 33 32 32 32 32 32 33 32 32 31 31 32
Wind_Direction
221 221 220 220 219 219 219 220 221 223 223 224 227 228 227 228 228 229 232 229 223 232 241 236 232 239 242 234 230 239 242 239 240 240 236 234 238 241 244 248 250 252 254 256 257 258 259 261 262 264 265 265 265 267 267 267 267 265 263 262 260 260 260 262 265 265 266 269 268 265 263 263 264 266 269 270 267 267 271 274 276 277 276 272 269 271
221 221 220 219 219 219 220 220 220 220 220 222 226 228 228 228 228 229 231 231 227 227 240 242 233 234 239 238 233 236 243 241 235 238 239 236 238 240 241 245 246 249 251 253 255 256 258 259 260 262 262 261 262 264 265 265 264 262 260 259 258 258 259 259 261 264 265 265 263 261 261 262 263 265 267 265 261 266 275 276 277 276 275 273 272 271
222 221 218 217 218 218 219 219 219 219 218 221 223 226 228 228 228 230 228 230 233 231 233 239 236 234 235 237 237 235 241 243 234 231 240 239 238 241 241 241 243 245 248 251 252 255 256 257 258 259 259 259 259 261 263 263 261 258 256 256 258 256 255 256 259 262 261 260 260 260 260 261 262 265 266 263 261 268 275 277 277 275 273 271 270 268
221 220 216 215 216 216 218 218 218 218 218 219 221 223 226 227 228 229 227 227 232 232 232 236 239 241 239 237 238 237 238 246 240 228 234 241 239 241 242 240 241 243 246 249 251 253 255 256 256 256 256 257 258 258 258 258 255 253 254 255 254 252 251 254 258 260 259 259 259 258 258 260 264 266 267 264 262 267 273 277 277 273 271 268 266 267
220 217 213 213 214 215 216 216 216 216 217 218 218 221 223 223 224 228 229 228 228 229 230 232 235 240 242 238 239 239 237 244 244 229 225 239 240 240 243 241 239 242 246 248 250 252 253 255 254 253 253 254 254 252 251 251 250 249 250 251 250 251 255 258 260 261 261 259 256 256 258 262 264 266 267 267 265 266 270 274 275 274 273 268 266 270
216 212 210 211 213 213 213 215 214 214 216 216 216 220 221 220 223 227 226 221 220 224 229 230 230 234 239 239 239 240 238 240 242 232 223 235 240 240 241 240 239 242 246 248 249 251 252 253 252 250 250 249 247 246 246 245 244 245 247 249 249 252 257 259 260 263 263 260 258 257 259 261 263 265 268 270 268 268 270 271 273 275 271 266 268 275
211 206 209 211 212 212 211 212 213 214 214 215 217 220 220 219 220 220 214 215 221 226 232 237 237 235 237 239 239 237 237 240 240 236 232 235 239 241 239 237 240 242 245 248 248 249 250 249 248 246 244 242 240 240 241 240 241 242 245 250 250 249 253 258 262 264 263 261 260 258 259 261 265 268 269 269 268 268 270 271 274 273 266 264 273 277
207 205 208 210 210 211 211 210 211 213 211 213 217 218 218 215 212 209 208 217 227 230 234 240 241 237 236 238 239 236 237 242 240 237 236 237 238 240 238 237 240 240 242 245 246 245 244 243 242 239 237 236 235 235 235 236 240 242 243 248 253 252 254 258 261 263 262 261 260 259 261 265 268 270 268 267 268 268 271 274 274 270 265 271 277 274
205 205 207 208 208 208 208 208 211 211 208 212 217 218 216 214 209 208 210 217 228 231 230 236 240 237 233 234 237 238 240 240 239 236 236 236 237 237 237 237 237 237 239 240 241 240 237 236 234 232 231 232 231 231 231 232 238 243 241 246 253 254 253 256 258 261 262 260 260 262 266 268 268 268 268 268 270 270 270 273 271 269 272 276 275 271
204 206 206 209 208 207 207 207 209 209 206 207 213 217 217 216 214 214 214 216 223 228 224 230 238 237 232 231 232 234 239 238 235 236 236 235 236 236 235 234 233 234 235 235 235 233 229 228 228 227 227 229 228 228 229 229 235 241 241 244 250 252 252 255 258 259 261 261 263 266 268 267 266 267 269 270 269 268 267 268 267 269 274 274 271 269
202 205 207 211 208 203 203 205 207 207 206 204 201 211 214 214 215 216 216 215 219 227 229 231 236 238 236 233 230 229 235 239 238 235 234 235 234 233 231 230 230 230 231 231 229 226 224 223 224 223 222 225 227 228 229 229 233 240 243 245 248 252 255 259 260 260 262 263 265 268 266 265 265 267 269 268 265 264 263 262 263 268 272 271 268 263
195 198 204 212 208 200 199 202 203 205 206 203 200 210 213 212 213 215 216 215 217 227 232 232 231 237 239 232 229 230 231 240 244 236 232 236 234 231 230 228 228 228 228 228 224 220 220 219 219 219 219 222 226 229 231 231 234 240 244 247 250 252 256 260 261 261 260 261 264 266 265 264 265 266 265 264 262 259 258 259 265 270 271 270 264 258
190 191 198 207 206 201 202 203 201 204 204 199 202 211 212 212 212 214 215 216 221 227 232 232 224 229 235 227 225 231 229 236 242 236 232 236 234 229 228 228 227 226 227 226 222 218 217 217 216 216 216 219 223 228 231 233 237 241 244 248 251 253 256 258 258 258 257 259 264 266 265 264 265 266 264 263 261 258 259 263 268 269 268 268 264 259
190 189 195 202 204 199 199 199 199 203 201 194 200 207 203 206 210 211 214 218 224 228 229 228 222 227 234 228 225 228 226 236 241 237 232 234 231 226 224 226 226 224 226 226 222 218 216 216 215 214 214 215 221 227 232 236 239 242 246 250 253 253 255 258 259 259 259 263 266 265 266 269 271 272 270 268 265 263 264 265 267 268 268 267 264 262
190 192 193 197 202 198 193 193 200 204 200 196 203 204 195 201 211 214 216 218 223 226 223 220 223 229 232 231 231 226 220 231 239 235 231 230 230 226 221 222 223 222 224 225 222 218 215 216 214 214 215 216 220 227 233 237 240 244 248 252 255 255 257 260 262 264 267 270 268 266 270 275 275 275 275 273 271 267 263 261 264 268 269 265 262 263
188 194 195 195 200 199 192 187 198 202 198 197 200 200 194 198 211 215 216 218 222 223 220 221 225 229 229 229 231 227 220 228 236 233 229 228 228 226 222 221 221 221 223 224 222 217 214 216 216 215 218 218 221 229 233 237 242 246 251 255 259 261 262 264 266 270 274 272 269 270 273 275 274 275 275 274 271 265 261 260 263 266 266 263 262 263
187 191 196 196 197 200 194 186 193 198 194 195 198 194 194 195 206 215 214 217 223 221 220 227 228 227 228 228 228 225 219 226 234 231 227 227 227 225 223 222 222 221 223 225 224 218 215 218 219 219 220 220 223 230 234 238 244 249 252 256 261 265 267 269 271 275 277 273 271 272 272 273 273 274 273 271 269 265 262 261 260 262 262 262 262 261
186 190 193 193 195 201 197 188 193 196 189 195 202 196 191 193 201 214 211 213 220 219 219 228 229 225 226 229 229 227 221 225 232 230 225 226 226 226 225 224 224 223 226 228 226 221 219 221 223 223 223 222 225 231 235 239 245 250 253 258 263 267 269 272 275 278 279 274 272 271 270 270 271 272 271 270 269 267 264 260 258 261 262 260 260 257
181 185 187 191 194 201 199 190 189 193 187 195 206 199 192 190 196 205 202 205 215 216 216 225 230 226 223 227 230 229 225 228 234 232 225 224 225 226 225 225 225 224 226 229 227 223 223 226 228 227 225 224 227 232 236 240 246 251 254 258 263 267 270 272 275 278 278 274 270 268 267 267 268 270 270 268 269 269 264 259 259 263 262 259 257 254
178 181 182 189 194 201 200 193 188 191 189 191 202 201 197 193 194 198 198 204 212 215 214 219 228 227 223 225 232 234 230 227 232 233 226 223 225 225 224 225 226 225 227 230 227 224 225 228 229 226 225 225 227 233 237 241 247 251 254 258 262 266 269 272 274 276 276 271 267 266 266 267 267 268 269 268 269 268 261 257 259 262 261 257 254 252
176 182 181 183 189 197 199 195 191 192 191 188 189 194 197 196 196 198 202 207 209 212 214 215 222 227 225 225 230 236 236 227 226 231 227 224 226 225 224 225 227 227 229 230 228 224 225 226 227 225 224 225 228 234 238 242 247 252 255 258 262 265 267 270 272 273 273 268 265 265 263 264 265 267 268 268 268 265 259 256 258 260 257 253 252 252
172 184 186 183 191 196 196 194 193 191 192 191 187 192 195 195 195 197 201 205 203 208 216 218 219 224 228 227 226 233 237 229 223 227 226 224 226 226 223 223 225 227 228 228 226 225 224 224 225 224 223 226 230 235 239 243 248 253 257 258 261 264 265 267 269 269 268 264 263 262 260 261 264 265 267 269 268 263 257 256 256 255 253 250 250 252
172 179 184 184 194 197 195 195 197 193 193 192 186 191 197 196 196 196 197 202 201 201 211 220 221 221 225 227 225 228 234 232 227 225 224 224 225 225 223 222 224 224 224 225 225 225 224 223 223 221 221 226 230 234 238 242 248 254 257 258 260 263 262 263 265 266 264 261 260 260 259 261 262 262 264 267 266 259 254 253 252 251 250 249 250 252
172 172 177 177 190 196 197 198 197 192 196 196 185 182 195 201 200 197 198 205 204 195 195 207 215 218 222 225 226 228 231 234 232 226 222 221 221 221 222 222 223 222 221 223 224 225 223 222 221 218 218 224 230 235 238 243 248 253 258 260 260 261 260 260 263 265 262 260 258 257 257 260 260 260 263 266 263 256 251 249 249 249 249 249 251 254
176 176 177 170 178 186 190 197 195 188 195 199 191 188 195 201 200 197 199 206 210 203 195 195 203 212 220 224 226 230 232 234 234 228 221 220 219 219 221 222 223 222 222 223 224 225 223 222 219 215 216 223 230 236 239 244 250 255 259 260 257 257 258 258 261 262 260 258 256 253 254 257 258 259 263 266 263 256 250 248 249 250 250 251 253 256
179 186 185 173 181 185 186 197 200 195 196 197 195 197 198 197 197 196 196 201 210 209 202 200 201 209 219 223 226 231 233 233 234 229 223 220 218 219 220 222 223 222 222 223 224 225 223 220 216 213 216 224 230 236 241 246 251 255 258 254 251 254 256 256 258 257 256 255 252 250 252 254 255 258 263 265 262 256 250 248 249 251 251 252 254 257
176 187 186 171 183 196 198 202 202 199 198 196 196 200 201 202 200 198 199 201 204 208 207 205 202 205 219 226 226 229 230 230 230 226 224 220 218 218 220 222 222 220 220 222 223 224 222 217 214 212 217 225 230 236 243 248 250 251 250 246 245 251 254 254 254 253 252 252 249 249 250 251 252 256 262 264 262 258 253 250 250 251 252 253 255 258
173 179 180 167 171 190 201 205 206 204 201 197 198 202 203 205 204 203 203 201 200 205 208 207 204 203 212 222 226 228 230 229 225 221 220 219 218 219 220 222 222 219 220 222 222 223 220 215 212 213 218 225 231 238 244 246 246 244 241 239 242 248 251 252 252 251 250 249 247 247 248 249 252 256 261 263 262 260 256 252 251 251 252 254 256 260
174 176 179 175 175 186 193 197 207 210 205 201 201 202 204 205 206 208 206 202 204 208 206 206 211 213 211 207 216 226 230 229 224 220 218 217 217 219 219 221 221 219 220 221 221 220 216 212 212 214 220 226 232 238 240 239 237 236 236 237 242 246 248 252 253 251 250 247 245 245 247 249 253 257 260 262 261 260 257 254 252 252 253 255 257 261
176 178 177 173 176 183 184 184 197 207 206 206 206 204 204 203 205 210 208 205 208 210 207 206 211 216 217 210 206 216 223 224 222 218 217 217 216 217 218 219 219 218 220 220 220 218 213 209 211 215 221 226 229 230 230 231 232 235 237 240 243 246 248 250 251 251 250 246 244 245 247 250 253 256 259 260 260 259 256 254 253 252 253 254 257 260
175 177 178 173 173 180 185 191 201 203 202 207 210 210 210 208 207 210 210 209 210 212 213 212 211 215 216 212 211 215 216 215 215 214 215 216 217 216 216 216 216 216 218 219 217 214 210 209 212 217 221 224 224 223 226 231 235 239 242 245 247 249 249 248 249 249 249 246 245 246 248 250 253 256 259 259 259 258 257 255 253 253 253 255 257 260
171 171 173 175 173 178 188 198 207 208 206 207 208 209 209 210 212 214 215 215 216 218 219 218 219 223 216 206 213 219 218 216 215 214 214 215 215 215 214 213 213 213 215 216 214 211 210 211 214 218 221 221 220 223 229 235 239 244 248 250 251 252 251 249 248 248 249 248 248 248 249 251 253 255 257 258 259 259 258 256 255 255 256 256 259 261
167 166 170 175 174 180 191 198 203 210 213 213 211 209 207 208 211 214 215 217 217 219 220 218 221 225 216 205 213 218 217 217 217 216 216 215 215 214 212 211 211 211 213 213 211 210 210 213 216 219 222 221 220 226 233 238 243 248 252 253 254 255 254 250 247 247 248 248 248 248 250 252 253 254 256 258 259 260 260 258 257 258 259 260 262 264
171 170 171 172 174 181 188 193 199 206 211 212 214 215 213 211 214 216 217 218 218 218 220 220 222 222 212 206 211 212 209 210 213 216 217 215 214 212 211 211 210 210 211 211 210 210 212 215 218 221 223 224 224 230 238 244 248 252 255 257 258 258 256 253 251 249 248 247 247 247 249 251 252 253 256 257 259 260 260 260 260 262 262 263 264 266
174 175 175 172 175 180 182 189 198 201 204 207 210 214 215 216 218 220 221 222 222 222 223 224 225 220 208 206 209 207 205 208 212 214 215 213 213 211 209 209 209 208 209 209 208 211 214 217 220 223 225 228 230 234 241 247 251 254 257 259 259 258 256 254 252 249 246 246 246 246 247 249 251 253 255 256 258 259 260 261 262 264 265 266 267 268
176 180 179 173 173 175 176 186 195 198 202 206 208 210 213 216 219 222 223 224 224 223 224 224 222 215 207 207 206 205 207 210 212 212 213 213 214 211 208 208 208 207 208 208 209 213 217 220 222 224 226 229 233 238 243 248 252 254 255 256 257 255 251 248 247 245 243 242 243 244 245 247 249 250 253 255 257 258 260 262 263 265 266 268 269 271
180 183 180 174 173 173 172 178 190 199 204 205 206 209 210 213 217 220 223 224 224 224 225 224 219 211 208 207 206 207 210 210 209 210 212 213 213 210 209 209 208 208 208 209 212 215 219 222 223 224 227 231 236 241 245 248 250 251 251 253 253 251 246 242 241 241 240 241 242 243 245 247 249 251 253 255 256 258 261 263 264 266 268 270 271 273
182 182 177 174 173 172 172 176 185 200 205 204 207 209 209 211 215 219 221 224 225 226 225 223 216 209 209 209 209 211 211 207 206 210 212 212 213 212 210 209 209 209 209 210 213 216 219 221 223 226 230 234 238 242 245 247 249 249 249 249 248 246 242 239 238 239 240 241 243 244 246 249 250 252 254 256 258 260 262 264 266 268 270 271 273 275
183 181 177 173 172 173 176 179 183 193 200 203 206 206 206 208 212 216 218 220 223 224 222 219 212 207 209 211 212 214 210 202 204 210 210 210 214 213 211 210 210 210 210 209 212 215 218 221 225 228 232 235 238 242 245 246 248 248 247 245 242 240 239 238 239 240 241 243 245 247 249 251 253 255 257 259 260 261 263 265 267 269 271 272 274 276
182 178 175 175 177 178 178 179 183 190 197 202 203 200 201 206 209 212 215 218 221 221 217 213 209 206 209 211 213 214 209 201 205 210 207 207 213 213 211 211 211 212 213 212 212 216 219 222 225 228 232 235 238 241 243 244 245 244 243 241 239 238 238 239 240 242 244 246 248 250 252 253 254 256 257 258 261 262 264 266 268 270 272 274 276 277
181 177 175 179 182 181 183 187 190 191 191 194 195 195 197 202 206 210 214 216 219 219 215 210 206 205 208 210 212 213 210 206 208 209 203 204 211 214 213 211 212 214 214 211 211 214 217 220 223 227 232 236 238 239 238 238 239 238 237 237 236 237 238 239 240 243 245 248 249 250 251 252 253 255 257 259 262 264 265 267 269 271 274 276 278 278
184 180 180 185 186 184 187 195 201 196 189 188 191 194 196 198 202 208 213 214 214 216 214 208 203 203 207 209 210 212 212 209 210 210 207 208 212 214 214 214 215 215 211 208 209 213 216 220 225 231 235 235 234 233 233 235 236 237 238 238 238 238 240 241 243 245 246 248 250 251 252 253 255 257 260 262 265 267 269 271 273 275 277 278 279 279
192 185 184 189 193 192 193 198 197 189 189 189 190 194 199 201 202 204 208 209 207 206 206 203 197 196 201 205 209 211 211 210 209 209 211 213 214 213 213 216 219 218 215 213 214 216 219 223 228 232 233 230 228 230 235 239 241 243 244 244 244 245 246 248 249 249 249 250 252 253 254 256 258 260 264 268 271 274 276 277 278 278 279 279 279 280
200 191 183 188 196 198 201 204 191 178 184 188 189 194 200 203 203 202 203 205 202 201 203 199 190 188 193 199 204 206 206 207 208 209 211 214 216 215 214 217 219 219 218 217 217 218 222 226 230 231 228 225 228 236 244 247 249 248 248 248 249 249 250 251 250 250 251 252 253 255 257 260 264 267 271 275 278 280 280 280 280 279 279 280 279 279
207 201 191 193 202 203 204 207 202 189 188 188 189 195 200 201 205 205 203 204 202 201 204 197 185 183 188 192 196 200 202 204 205 207 209 212 214 212 212 214 217 217 219 221 222 225 228 230 232 229 224 225 234 243 249 252 253 252 250 250 251 252 253 254 254 255 255 256 258 261 263 267 270 273 276 278 280 280 280 280 279 279 278 278 278 278
208 212 208 208 212 208 207 209 206 199 193 188 190 198 199 200 207 209 206 206 204 201 202 197 189 186 189 189 192 198 203 204 204 206 209 212 213 211 211 214 217 219 221 224 227 230 233 236 236 231 226 230 239 245 251 254 254 254 254 255 256 257 259 261 262 263 263 264 266 268 270 272 275 277 278 279 279 279 279 278 278 277 276 276 276 277
203 210 213 213 211 210 210 209 206 204 202 194 193 197 199 200 207 209 208 209 208 206 204 201 196 193 192 193 194 198 204 207 207 208 211 214 216 218 218 219 221 222 223 225 227 230 234 236 236 234 233 237 244 249 253 255 256 257 260 262 264 265 266 268 269 270 271 272 273 274 275 276 277 278 278 279 279 279 279 277 276 275 274 274 275 276
198 201 203 204 210 212 207 205 208 212 211 205 201 200 200 201 206 209 207 206 209 210 207 202 200 199 198 199 199 200 204 209 210 211 213 215 220 225 226 226 226 227 227 225 226 229 233 234 233 234 239 245 249 251 252 253 256 261 265 268 269 270 271 273 274 275 276 277 277 277 277 277 277 277 278 278 279 279 278 276 275 273 273 273 274 275
205 207 198 194 199 200 196 200 208 213 214 212 211 208 204 204 207 207 202 200 202 208 207 203 201 203 203 204 205 205 206 209 213 215 216 218 223 228 229 229 232 234 233 230 228 231 235 237 236 237 243 247 248 248 250 254 259 264 268 270 271 272 274 275 276 277 277 277 277 277 277 277 276 276 276 276 277 277 276 275 273 272 272 273 274 275
213 211 201 194 193 191 197 205 207 208 213 215 214 212 212 214 212 206 200 199 201 205 207 204 201 203 206 207 208 210 210 211 213 216 218 221 225 229 230 230 232 235 236 235 234 236 239 240 237 237 241 244 247 250 254 259 263 266 269 271 272 273 275 276 276 276 276 276 276 276 276 275 275 274 274 275 275 275 275 273 273 272 272 273 274 275
217 214 208 203 201 202 211 214 208 206 211 212 210 212 217 221 217 208 205 209 212 213 211 206 202 204 207 208 209 211 213 214 215 217 220 222 225 230 234 234 234 236 236 235 234 237 239 240 239 240 244 248 252 256 259 262 264 266 269 271 273 274 275 276 276 275 274 274 274 273 273 273 273 273 273 273 273 273 272 272 272 273 273 274 275 276
Height
5656 5659 5661 5667 5678 5689 5700 5709 5717 5725 5733 5737 5739 5742 5748 5753 5756 5762 5766 5774 5779 5777 5775 5778 5785 5785 5783 5793 5800 5795 5794 5798 5803 5807 5810 5813 5813 5814 5816 5818 5819 5820 5821 5821 5820 5820 5824 5827 5828 5830 5832 5832 5830 5829 5830 5831 5832 5832 5832 5832 5830 5829 5830 5830 5830 5830 5831 5830 5831 5831 5831 5831 5831 5832 5832 5832 5832 5832 5833 5833 5833 5831 5830 5830 5831 5831
5648 5649 5655 5667 5680 5692 5700 5706 5712 5718 5726 5730 5732 5737 5744 5748 5752 5759 5765 5769 5772 5775 5776 5774 5777 5780 5780 5787 5794 5795 5792 5792 5798 5803 5805 5809 5809 5811 5813 5813 5815 5816 5816 5816 5816 5818 5822 5824 5826 5827 5828 5828 5828 5827 5827 5828 5829 5829 5829 5827 5826 5827 5827 5828 5827 5828 5829 5829 5829 5829 5829 5830 5830 5830 5830 5830 5830 5830 5831 5831 5830 5829 5828 5828 5828 5828
5639 5641 5653 5668 5680 5688 5693 5697 5703 5711 5719 5723 5727 5734 5738 5742 5750 5756 5762 5765 5766 5773 5776 5771 5771 5774 5778 5783 5788 5792 5791 5787 5792 5800 5802 5804 5806 5808 5809 5809 5810 5812 5812 5812 5813 5816 5818 5821 5823 5825 5825 5825 5825 5825 5825 5826 5826 5825 5825 5824 5824 5824 5824 5825 5826 5827 5827 5827 5827 5828 5828 5828 5827 5828 5828 5828 5827 5828 5828 5828 5828 5826 5826 5825 5825 5825
5633 5638 5655 5669 5676 5679 5682 5688 5696 5705 5712 5716 5723 5729 5732 5739 5747 5749 5754 5759 5765 5771 5771 5767 5768 5770 5775 5780 5782 5787 5790 5786 5786 5794 5798 5798 5802 5803 5804 5805 5806 5807 5808 5808 5811 5813 5815 5818 5820 5822 5822 5822 5822 5823 5823 5823 5822 5821 5822 5822 5821 5820 5822 5823 5824 5825 5825 5826 5826 5826 5826 5825 5825 5825 5825 5825 5825 5826 5826 5826 5825 5824 5823 5823 5822 5822
5630 5641 5657 5664 5665 5667 5673 5681 5690 5698 5703 5709 5718 5722 5726 5735 5741 5744 5751 5759 5767 5766 5761 5761 5765 5767 5769 5775 5779 5781 5785 5784 5780 5785 5794 5795 5796 5798 5800 5800 5801 5803 5804 5806 5808 5810 5812 5815 5817 5818 5818 5818 5819 5820 5821 5820 5819 5819 5819 5819 5818 5819 5821 5822 5823 5823 5824 5824 5824 5823 5824 5823 5823 5822 5822 5823 5823 5823 5824 5823 5823 5822 5821 5820 5820 5820
5630 5642 5650 5652 5654 5660 5668 5675 5684 5691 5696 5705 5712 5714 5721 5732 5739 5743 5750 5758 5759 5752 5750 5755 5759 5761 5766 5772 5776 5776 5778 5779 5776 5780 5790 5791 5791 5794 5796 5795 5797 5800 5801 5803 5806 5807 5810 5811 5813 5815 5815 5815 5816 5817 5818 5816 5815 5816 5817 5816 5818 5821 5821 5821 5821 5821 5822 5821 5821 5821 5821 5821 5820 5820 5821 5821 5821 5821 5821 5821 5820 5820 5819 5818 5819 5818
5628 5638 5641 5643 5648 5656 5663 5670 5677 5684 5692 5701 5705 5709 5720 5731 5736 5741 5747 5748 5745 5744 5747 5750 5754 5760 5765 5770 5770 5771 5774 5773 5772 5779 5785 5786 5787 5790 5791 5791 5794 5798 5799 5800 5802 5804 5807 5808 5810 5811 5811 5812 5813 5815 5814 5813 5813 5814 5815 5815 5817 5820 5820 5819 5820 5820 5819 5819 5819 5819 5818 5818 5818 5818 5819 5819 5818 5819 5819 5819 5818 5818 5817 5817 5817 5816
5625 5631 5634 5638 5644 5651 5657 5664 5671 5679 5690 5698 5700 5707 5719 5726 5731 5737 5742 5740 5738 5744 5748 5746 5751 5758 5763 5765 5765 5768 5772 5768 5770 5777 5780 5781 5784 5785 5787 5788 5792 5795 5796 5797 5799 5801 5803 5805 5806 5807 5808 5808 5810 5811 5811 5810 5811 5812 5814 5813 5814 5818 5818 5818 5818 5817 5817 5816 5816 5816 5816 5817 5817 5817 5817 5817 5816 5817 5817 5817 5816 5816 5815 5815 5814 5813
5622 5625 5628 5632 5638 5644 5651 5661 5669 5677 5687 5693 5697 5705 5713 5718 5724 5730 5735 5737 5738 5741 5744 5744 5748 5753 5757 5760 5763 5766 5766 5763 5768 5773 5775 5778 5780 5782 5785 5787 5790 5792 5793 5794 5796 5798 5800 5801 5802 5803 5805 5805 5807 5808 5808 5808 5809 5810 5812 5812 5812 5815 5816 5816 5816 5815 5815 5815 5815 5815 5815 5816 5815 5815 5815 5815 5815 5815 5814 5814 5813 5813 5813 5812 5811 5811
5618 5621 5626 5630 5634 5641 5651 5660 5667 5674 5682 5689 5696 5702 5706 5713 5720 5725 5728 5733 5735 5734 5738 5742 5743 5747 5753 5756 5760 5763 5760 5760 5766 5769 5771 5774 5776 5780 5784 5786 5788 5789 5789 5792 5793 5795 5796 5798 5799 5800 5802 5803 5804 5805 5805 5806 5807 5807 5809 5810 5811 5812 5813 5814 5814 5813 5813 5813 5813 5813 5813 5814 5813 5814 5814 5814 5813 5813 5812 5812 5812 5811 5811 5810 5809 5809
5614 5620 5625 5628 5633 5642 5651 5657 5662 5669 5675 5684 5693 5696 5699 5708 5715 5718 5722 5729 5730 5727 5731 5738 5741 5746 5748 5750 5755 5758 5758 5759 5762 5764 5768 5770 5773 5777 5781 5783 5784 5786 5787 5789 5790 5792 5793 5795 5796 5798 5799 5800 5801 5802 5803 5804 5805 5805 5806 5807 5809 5810 5811 5811 5811 5812 5812 5812 5811 5811 5812 5812 5812 5812 5813 5812 5812 5811 5810 5810 5810 5810 5809 5808 5808 5808
5608 5614 5620 5624 5630 5637 5644 5649 5655 5663 5670 5679 5687 5688 5692 5702 5708 5712 5717 5721 5723 5723 5726 5733 5743 5746 5741 5745 5753 5755 5759 5759 5756 5761 5765 5767 5771 5774 5778 5780 5781 5783 5785 5785 5787 5789 5790 5792 5794 5795 5797 5798 5799 5800 5800 5802 5802 5803 5803 5805 5806 5807 5809 5809 5809 5809 5810 5810 5810 5810 5810 5811 5810 5811 5810 5810 5809 5809 5808 5808 5808 5807 5807 5807 5807 5808
5603 5607 5614 5619 5625 5632 5638 5644 5651 5657 5665 5675 5680 5682 5689 5697 5702 5707 5711 5713 5716 5719 5725 5732 5741 5740 5736 5744 5751 5752 5757 5756 5752 5758 5763 5764 5769 5771 5774 5777 5778 5781 5782 5782 5784 5785 5787 5790 5792 5793 5795 5795 5796 5797 5798 5799 5799 5800 5801 5802 5804 5806 5807 5807 5807 5808 5808 5808 5808 5808 5808 5808 5808 5808 5807 5807 5806 5806 5806 5805 5805 5805 5805 5806 5806 5807
5600 5604 5609 5615 5622 5628 5634 5642 5647 5650 5659 5670 5674 5678 5686 5691 5695 5699 5703 5708 5712 5717 5725 5732 5734 5733 5735 5743 5746 5748 5754 5754 5751 5755 5759 5761 5765 5767 5769 5773 5776 5777 5778 5779 5781 5783 5785 5788 5790 5791 5791 5792 5793 5794 5795 5796 5797 5798 5799 5800 5802 5804 5805 5805 5805 5806 5807 5806 5805 5805 5805 5804 5804 5804 5804 5804 5804 5804 5804 5803 5803 5804 5804 5805 5805 5805
5600 5603 5607 5613 5620 5625 5631 5640 5646 5649 5657 5667 5671 5677 5685 5688 5691 5695 5700 5706 5710 5715 5723 5727 5727 5730 5735 5739 5740 5744 5751 5750 5748 5751 5754 5757 5761 5763 5765 5768 5771 5773 5774 5776 5777 5780 5783 5785 5787 5788 5788 5789 5791 5792 5793 5793 5794 5795 5797 5798 5800 5801 5802 5802 5803 5804 5804 5804 5803 5802 5802 5801 5801 5801 5802 5801 5802 5802 5802 5802 5803 5803 5803 5803 5804 5804
5602 5605 5609 5614 5620 5624 5630 5639 5645 5649 5657 5665 5670 5676 5682 5687 5692 5695 5700 5706 5710 5715 5720 5720 5723 5729 5733 5734 5736 5740 5746 5745 5743 5747 5752 5754 5757 5760 5762 5764 5766 5768 5770 5771 5774 5778 5781 5782 5784 5785 5785 5787 5789 5790 5791 5791 5792 5793 5794 5796 5796 5796 5798 5799 5800 5801 5801 5800 5800 5800 5800 5799 5799 5800 5800 5800 5800 5800 5801 5801 5801 5802 5802 5802 5803 5803
5601 5605 5609 5614 5620 5624 5629 5636 5641 5645 5654 5662 5665 5672 5680 5688 5692 5694 5699 5705 5707 5712 5716 5716 5721 5727 5729 5730 5732 5736 5741 5740 5739 5745 5749 5751 5754 5756 5758 5760 5762 5765 5767 5768 5772 5776 5779 5780 5781 5782 5783 5785 5787 5788 5789 5789 5790 5791 5792 5793 5793 5793 5794 5795 5796 5797 5797 5797 5797 5798 5798 5798 5798 5798 5798 5798 5798 5799 5799 5799 5799 5800 5800 5801 5801 5801
5602 5605 5608 5613 5619 5622 5627 5635 5640 5645 5654 5659 5660 5668 5680 5688 5691 5692 5696 5701 5703 5708 5713 5713 5718 5724 5726 5728 5728 5731 5736 5736 5736 5743 5747 5749 5751 5752 5755 5758 5760 5764 5765 5767 5771 5774 5776 5777 5778 5779 5781 5783 5785 5785 5786 5787 5788 5789 5790 5790 5790 5791 5791 5792 5793 5794 5794 5795 5795 5796 5796 5797 5796 5796 5796 5796 5796 5797 5797 5797 5797 5798 5798 5799 5799 5799
5602 5605 5608 5613 5617 5621 5625 5633 5639 5643 5650 5656 5660 5667 5675 5681 5686 5688 5691 5696 5699 5704 5710 5711 5714 5719 5723 5725 5724 5726 5732 5734 5736 5741 5744 5746 5747 5749 5753 5756 5758 5761 5762 5764 5768 5772 5773 5774 5775 5778 5779 5781 5782 5783 5784 5786 5786 5788 5789 5788 5788 5789 5789 5790 5791 5792 5793 5793 5793 5793 5794 5795 5795 5794 5794 5794 5795 5795 5795 5795 5795 5796 5796 5797 5797 5797
5601 5604 5607 5612 5618 5621 5624 5629 5635 5639 5645 5653 5660 5666 5671 5676 5682 5686 5688 5692 5697 5701 5706 5709 5710 5714 5720 5722 5722 5723 5728 5732 5735 5737 5741 5743 5745 5747 5751 5753 5756 5758 5759 5761 5766 5769 5770 5771 5773 5775 5777 5778 5779 5781 5782 5784 5785 5786 5787 5787 5787 5787 5788 5789 5790 5791 5791 5791 5791 5791 5792 5792 5792 5792 5792 5793 5793 5793 5793 5793 5794 5794 5794 5795 5795 5795
5600 5604 5606 5611 5616 5618 5621 5627 5633 5638 5642 5648 5655 5662 5667 5673 5679 5684 5688 5691 5694 5699 5703 5706 5708 5713 5717 5720 5722 5721 5723 5729 5732 5734 5737 5740 5742 5745 5748 5750 5753 5754 5756 5760 5763 5766 5767 5768 5770 5772 5773 5775 5777 5778 5780 5782 5783 5784 5785 5785 5785 5785 5787 5787 5788 5789 5789 5789 5789 5789 5789 5790 5790 5790 5790 5790 5791 5791 5791 5791 5792 5792 5792 5793 5793 5793
5599 5603 5606 5610 5613 5615 5621 5627 5632 5637 5642 5648 5654 5660 5664 5670 5676 5681 5685 5688 5692 5696 5700 5703 5707 5713 5714 5716 5719 5719 5719 5724 5728 5731 5735 5737 5739 5741 5745 5747 5749 5751 5754 5757 5759 5761 5763 5765 5767 5769 5770 5772 5774 5776 5778 5780 5781 5782 5783 5783 5783 5783 5785 5785 5785 5786 5786 5787 5787 5787 5787 5787 5787 5787 5788 5788 5789 5789 5789 5789 5790 5790 5790 5791 5791 5791
5599 5603 5607 5610 5613 5618 5623 5628 5631 5637 5642 5646 5653 5661 5666 5669 5672 5677 5682 5685 5689 5695 5700 5703 5707 5711 5710 5711 5714 5714 5715 5720 5725 5728 5732 5734 5736 5738 5741 5743 5745 5747 5751 5753 5755 5757 5759 5761 5764 5766 5768 5769 5771 5773 5775 5777 5779 5779 5780 5781 5781 5781 5782 5783 5783 5784 5784 5784 5784 5784 5784 5785 5785 5785 5785 5786 5787 5787 5787 5787 5788 5788 5789 5789 5789 5789
5601 5604 5608 5611 5615 5620 5625 5628 5631 5637 5641 5643 5649 5658 5664 5668 5670 5676 5682 5685 5687 5693 5698 5702 5704 5705 5705 5707 5710 5711 5713 5717 5721 5725 5728 5730 5732 5734 5736 5737 5740 5744 5746 5748 5751 5753 5755 5758 5761 5763 5765 5767 5768 5770 5772 5775 5776 5777 5777 5779 5779 5779 5780 5780 5780 5781 5782 5781 5781 5782 5782 5782 5783 5783 5783 5784 5785 5785 5785 5785 5786 5786 5787 5787 5787 5787
5603 5606 5608 5611 5614 5619 5623 5625 5627 5632 5637 5641 5647 5653 5659 5666 5670 5674 5680 5683 5685 5689 5694 5698 5701 5701 5702 5704 5706 5708 5711 5715 5718 5721 5724 5726 5728 5730 5732 5734 5736 5739 5742 5745 5748 5750 5753 5755 5758 5761 5763 5764 5766 5768 5770 5772 5773 5774 5775 5776 5776 5776 5777 5778 5778 5778 5779 5779 5779 5779 5779 5780 5780 5781 5781 5782 5782 5783 5783 5783 5784 5784 5784 5784 5785 5785
5604 5606 5609 5612 5615 5617 5620 5622 5626 5631 5635 5640 5645 5649 5654 5661 5666 5670 5675 5679 5682 5685 5689 5694 5699 5699 5699 5701 5703 5707 5710 5712 5715 5718 5721 5723 5725 5727 5729 5730 5732 5736 5740 5743 5745 5747 5750 5753 5755 5758 5760 5762 5763 5765 5767 5769 5770 5771 5772 5773 5773 5773 5774 5775 5776 5776 5776 5776 5776 5777 5777 5778 5778 5779 5779 5780 5780 5781 5781 5781 5782 5782 5782 5782 5782 5782
5604 5607 5609 5612 5616 5620 5622 5624 5628 5632 5635 5638 5643 5647 5651 5656 5662 5667 5671 5675 5679 5683 5686 5689 5695 5698 5698 5699 5702 5705 5707 5709 5712 5715 5717 5719 5721 5723 5725 5726 5729 5733 5737 5739 5742 5744 5747 5750 5753 5756 5758 5759 5760 5762 5764 5766 5767 5769 5769 5769 5770 5770 5771 5773 5773 5773 5773 5773 5774 5774 5775 5775 5776 5776 5777 5778 5778 5778 5778 5779 5779 5779 5780 5780 5780 5780
5605 5608 5610 5611 5615 5620 5624 5627 5629 5631 5635 5639 5643 5647 5649 5653 5659 5663 5666 5671 5676 5680 5682 5686 5690 5694 5697 5699 5701 5703 5705 5707 5709 5711 5713 5715 5717 5719 5721 5723 5726 5729 5733 5736 5739 5742 5745 5748 5751 5753 5755 5756 5757 5759 5761 5763 5764 5766 5766 5767 5767 5768 5769 5770 5770 5770 5770 5770 5771 5772 5772 5773 5773 5774 5775 5775 5776 5776 5776 5776 5776 5777 5777 5777 5777 5777
5606 5608 5611 5613 5615 5619 5623 5628 5631 5632 5635 5639 5642 5645 5649 5652 5656 5659 5662 5668 5672 5675 5680 5684 5686 5689 5694 5698 5699 5700 5702 5703 5705 5708 5709 5711 5713 5715 5718 5721 5723 5726 5730 5734 5737 5740 5743 5746 5748 5750 5752 5753 5755 5757 5759 5760 5762 5763 5764 5764 5765 5765 5766 5766 5767 5767 5768 5768 5769 5769 5770 5770 5771 5772 5772 5773 5773 5773 5773 5773 5774 5774 5774 5775 5775 5775
5607 5609 5611 5614 5616 5619 5624 5628 5630 5631 5634 5637 5641 5644 5648 5650 5653 5655 5659 5663 5667 5671 5675 5679 5682 5685 5689 5694 5697 5697 5698 5700 5702 5704 5706 5708 5710 5712 5715 5718 5721 5724 5728 5731 5735 5738 5740 5743 5745 5747 5748 5750 5753 5755 5756 5758 5759 5760 5761 5762 5762 5763 5763 5764 5764 5764 5765 5766 5766 5767 5767 5768 5768 5769 5769 5770 5770 5770 5770 5771 5772 5772 5772 5772 5772 5772
5607 5610 5612 5614 5616 5619 5623 5626 5628 5631 5634 5637 5640 5643 5646 5648 5651 5653 5657 5660 5663 5666 5670 5674 5678 5681 5685 5691 5694 5694 5695 5697 5700 5701 5704 5706 5708 5710 5713 5716 5719 5723 5726 5729 5732 5735 5738 5740 5742 5743 5746 5749 5751 5752 5754 5755 5756 5757 5758 5759 5760 5760 5760 5761 5761 5761 5762 5763 5763 5764 5764 5765 5766 5766 5767 5767 5768 5768 5768 5769 5769 5769 5769 5770 5770 5770
5608 5610 5612 5614 5616 5619 5622 5625 5628 5631 5633 5635 5637 5640 5644 5647 5650 5653 5657 5660 5663 5666 5670 5674 5676 5679 5684 5689 5691 5691 5694 5697 5699 5700 5702 5704 5705 5707 5710 5713 5717 5720 5723 5726 5729 5732 5735 5737 5739 5741 5744 5747 5749 5750 5751 5752 5753 5754 5755 5756 5757 5757 5758 5759 5759 5759 5759 5760 5760 5761 5762 5762 5763 5764 5764 5765 5765 5765 5766 5766 5766 5766 5767 5767 5767 5767
5608 5610 5612 5614 5616 5619 5621 5624 5627 5630 5631 5633 5636 5639 5642 5645 5648 5651 5654 5657 5660 5663 5667 5671 5673 5677 5684 5688 5688 5690 5694 5696 5697 5699 5700 5701 5703 5705 5708 5711 5714 5718 5721 5724 5727 5730 5732 5734 5736 5739 5742 5744 5746 5747 5748 5749 5750 5751 5752 5752 5754 5754 5755 5756 5756 5757 5757 5758 5758 5759 5759 5760 5760 5761 5761 5762 5762 5762 5763 5763 5763 5763 5764 5764 5764 5763
5608 5610 5612 5614 5616 5618 5621 5624 5626 5628 5630 5633 5637 5640 5642 5645 5647 5649 5651 5654 5658 5661 5665 5668 5671 5677 5684 5686 5685 5688 5692 5693 5694 5696 5697 5699 5700 5702 5705 5709 5712 5715 5719 5722 5725 5727 5729 5731 5734 5737 5739 5741 5743 5744 5744 5745 5747 5748 5748 5749 5750 5751 5752 5753 5753 5754 5755 5755 5756 5756 5757 5757 5758 5758 5758 5759 5759 5760 5760 5760 5760 5760 5761 5761 5760 5760
5609 5610 5612 5614 5616 5619 5621 5623 5625 5627 5629 5633 5636 5639 5641 5644 5646 5649 5651 5654 5658 5662 5665 5668 5672 5678 5682 5683 5684 5688 5690 5689 5690 5693 5695 5697 5699 5700 5703 5706 5709 5713 5717 5720 5722 5724 5726 5728 5732 5734 5737 5738 5739 5740 5741 5742 5743 5744 5745 5746 5747 5748 5749 5750 5750 5751 5752 5752 5753 5753 5754 5754 5755 5755 5755 5756 5756 5757 5757 5757 5758 5758 5758 5757 5757 5756
5609 5611 5612 5614 5616 5619 5621 5623 5625 5627 5629 5632 5634 5637 5640 5643 5645 5647 5650 5653 5657 5660 5663 5666 5671 5676 5678 5680 5683 5685 5685 5685 5688 5692 5694 5696 5697 5699 5702 5705 5708 5711 5714 5717 5719 5721 5724 5727 5730 5732 5734 5735 5736 5737 5738 5739 5740 5741 5741 5742 5743 5745 5746 5746 5747 5748 5749 5749 5750 5750 5750 5751 5752 5752 5752 5752 5753 5753 5754 5754 5754 5754 5754 5754 5753 5753
5610 5611 5613 5615 5617 5619 5621 5623 5625 5627 5629 5631 5633 5635 5638 5641 5643 5646 5649 5652 5655 5658 5661 5665 5671 5674 5676 5677 5679 5679 5680 5684 5688 5691 5693 5694 5696 5698 5701 5703 5706 5708 5711 5714 5716 5719 5722 5724 5727 5729 5731 5732 5733 5734 5735 5736 5736 5737 5738 5739 5740 5742 5742 5743 5744 5744 5745 5746 5746 5747 5747 5748 5748 5749 5749 5749 5750 5750 5750 5751 5751 5751 5751 5751 5750 5749
5609 5611 5613 5615 5616 5619 5621 5623 5625 5627 5628 5630 5632 5634 5637 5640 5642 5645 5648 5651 5653 5656 5660 5665 5669 5672 5673 5675 5675 5676 5678 5683 5688 5689 5691 5693 5694 5697 5699 5701 5703 5706 5708 5711 5714 5717 5720 5722 5725 5726 5728 5729 5730 5730 5731 5732 5733 5734 5735 5736 5737 5738 5739 5739 5740 5741 5741 5742 5743 5743 5744 5744 5745 5745 5746 5746 5746 5747 5747 5747 5748 5748 5747 5747 5747 5746
5609 5611 5613 5615 5617 5619 5621 5622 5624 5625 5627 5629 5631 5634 5637 5639 5641 5644 5647 5649 5652 5655 5659 5663 5666 5669 5671 5672 5673 5674 5678 5684 5686 5686 5688 5691 5693 5695 5697 5699 5701 5704 5706 5709 5712 5715 5718 5720 5722 5723 5724 5725 5726 5727 5728 5729 5730 5731 5732 5733 5734 5734 5735 5736 5737 5737 5738 5739 5740 5740 5741 5742 5742 5742 5743 5743 5743 5744 5744 5744 5744 5744 5744 5743 5743 5743
5610 5612 5614 5615 5618 5620 5621 5622 5623 5624 5627 5629 5631 5634 5636 5638 5640 5643 5646 5647 5649 5652 5656 5659 5663 5666 5668 5670 5671 5673 5677 5681 5681 5681 5685 5690 5691 5693 5695 5697 5699 5702 5704 5707 5710 5713 5716 5717 5719 5720 5721 5722 5723 5724 5725 5726 5727 5728 5729 5729 5730 5731 5732 5733 5733 5734 5735 5736 5737 5737 5738 5738 5739 5739 5739 5740 5740 5740 5741 5741 5741 5740 5740 5739 5739 5739
5611 5612 5613 5616 5618 5620 5621 5622 5623 5624 5626 5628 5630 5632 5635 5638 5640 5642 5644 5645 5648 5650 5653 5655 5660 5663 5666 5667 5669 5671 5675 5677 5678 5680 5685 5688 5689 5691 5693 5695 5697 5700 5703 5706 5708 5711 5713 5714 5716 5717 5718 5718 5720 5721 5723 5724 5725 5725 5726 5727 5727 5728 5729 5730 5730 5731 5732 5733 5733 5734 5735 5735 5735 5735 5736 5736 5737 5737 5737 5737 5737 5736 5736 5735 5735 5734
5611 5612 5614 5616 5619 5620 5621 5622 5622 5624 5626 5627 5628 5631 5634 5636 5638 5640 5642 5644 5646 5649 5650 5652 5657 5661 5664 5666 5667 5668 5671 5675 5678 5681 5685 5686 5687 5689 5690 5692 5695 5697 5699 5702 5705 5707 5709 5710 5712 5713 5714 5716 5718 5719 5720 5721 5722 5723 5723 5724 5725 5725 5726 5727 5728 5729 5729 5730 5730 5731 5732 5732 5732 5732 5733 5733 5733 5733 5734 5734 5733 5732 5731 5731 5730 5730
5611 5613 5615 5617 5619 5620 5621 5622 5622 5623 5625 5627 5628 5630 5632 5634 5636 5639 5641 5643 5645 5647 5648 5649 5653 5658 5661 5663 5664 5666 5669 5673 5676 5679 5682 5683 5685 5687 5689 5691 5692 5693 5695 5698 5701 5703 5705 5706 5708 5710 5712 5713 5715 5716 5717 5718 5719 5720 5721 5721 5722 5723 5723 5725 5725 5726 5726 5727 5727 5728 5728 5728 5728 5729 5729 5729 5729 5729 5729 5729 5728 5728 5727 5726 5726 5725
5612 5613 5615 5617 5618 5619 5620 5621 5622 5623 5625 5627 5629 5630 5631 5634 5637 5639 5640 5642 5644 5645 5647 5648 5651 5655 5658 5660 5662 5664 5667 5671 5674 5676 5679 5681 5683 5685 5687 5689 5690 5691 5693 5695 5697 5699 5701 5703 5704 5706 5709 5710 5712 5713 5714 5715 5716 5717 5718 5718 5719 5720 5721 5722 5722 5723 5723 5724 5724 5724 5724 5724 5725 5725 5725 5725 5724 5724 5724 5724 5723 5723 5722 5722 5721 5720
5612 5614 5615 5616 5617 5618 5619 5621 5622 5624 5626 5627 5628 5630 5632 5635 5637 5638 5639 5641 5643 5645 5647 5648 5650 5653 5655 5657 5660 5662 5665 5668 5671 5674 5676 5678 5681 5683 5685 5687 5688 5690 5692 5694 5696 5698 5699 5701 5702 5704 5706 5708 5709 5710 5711 5712 5713 5714 5714 5715 5716 5717 5718 5718 5719 5719 5720 5720 5720 5720 5720 5720 5720 5720 5720 5720 5720 5720 5719 5719 5718 5718 5717 5717 5716 5715
5612 5614 5615 5616 5617 5618 5619 5621 5623 5625 5626 5627 5629 5630 5632 5634 5635 5637 5639 5640 5642 5644 5646 5648 5649 5652 5654 5656 5658 5660 5663 5665 5668 5671 5673 5676 5678 5680 5682 5684 5686 5689 5691 5693 5694 5696 5697 5699 5701 5702 5704 5705 5706 5707 5707 5708 5709 5710 5711 5712 5713 5714 5714 5714 5714 5715 5715 5716 5716 5716 5716 5716 5716 5716 5715 5715 5715 5715 5714 5713 5713 5712 5712 5711 5711 5710
5613 5614 5615 5616 5617 5619 5620 5621 5623 5624 5626 5627 5628 5629 5631 5632 5633 5635 5637 5639 5641 5643 5645 5646 5648 5651 5652 5654 5656 5659 5661 5663 5666 5668 5671 5673 5675 5677 5679 5681 5684 5686 5688 5690 5691 5692 5693 5695 5697 5699 5700 5701 5702 5702 5704 5704 5705 5706 5707 5708 5709 5709 5710 5710 5710 5710 5710 5711 5711 5711 5711 5711 5711 5711 5711 5710 5710 5709 5709 5708 5708 5707 5707 5707 5706 5706
5614 5615 5615 5617 5618 5619 5620 5621 5622 5623 5625 5626 5627 5628 5629 5631 5632 5634 5636 5638 5640 5641 5642 5644 5646 5649 5651 5652 5654 5656 5659 5661 5664 5666 5668 5670 5672 5674 5676 5678 5680 5682 5684 5686 5688 5689 5689 5691 5693 5695 5696 5697 5698 5699 5700 5701 5701 5703 5704 5705 5705 5705 5705 5705 5705 5705 5705 5706 5706 5706 5707 5707 5707 5706 5706 5706 5705 5705 5704 5703 5703 5703 5702 5702 5702 5702
5614 5614 5615 5617 5617 5618 5618 5619 5621 5622 5624 5625 5626 5628 5629 5630 5631 5632 5633 5635 5637 5639 5641 5642 5644 5646 5648 5650 5652 5654 5657 5659 5661 5663 5665 5667 5669 5671 5673 5674 5677 5679 5681 5683 5685 5686 5686 5687 5690 5692 5693 5693 5694 5695 5696 5697 5698 5699 5701 5701 5700 5701 5701 5701 5701 5701 5701 5701 5702 5702 5702 5702 5701 5701 5701 5701 5701 5700 5700 5699 5698 5698 5698 5698 5698 5697
5612 5613 5615 5616 5617 5617 5617 5618 5619 5621 5622 5623 5625 5626 5628 5628 5629 5630 5632 5633 5635 5637 5639 5640 5642 5644 5646 5648 5650 5653 5654 5656 5658 5660 5661 5663 5665 5667 5668 5671 5674 5676 5677 5678 5680 5682 5682 5684 5686 5688 5689 5690 5691 5692 5693 5693 5694 5695 5696 5696 5696 5697 5697 5696 5696 5696 5697 5697 5697 5697 5697 5696 5696 5696 5696 5696 5696 5696 5695 5694 5694 5694 5694 5694 5693 5693
5611 5612 5614 5615 5616 5616 5616 5617 5619 5620 5620 5621 5622 5624 5625 5626 5627 5629 5630 5632 5633 5635 5636 5638 5639 5641 5644 5646 5648 5650 5652 5654 5656 5657 5659 5660 5662 5663 5665 5667 5670 5672 5673 5674 5676 5678 5679 5680 5682 5684 5685 5686 5687 5688 5689 5690 5690 5691 5692 5693 5692 5692 5692 5692 5692 5692 5692 5692 5692 5692 5692 5692 5692 5692 5692 5691 5691 5691 5691 5690 5690 5690 5690 5689 5689 5688